Year,Month,Day,Hour,Minute,Value (Times are PST for temperature in C)
2018,08,08,00,00,19.80
2018,08,08,00,01,19.80
2018,08,08,00,02,19.80
2018,08,08,00,03,19.80
2018,08,08,00,04,19.80
2018,08,08,00,05,19.70
2018,08,08,00,06,19.70
2018,08,08,00,07,19.70
2018,08,08,00,08,19.60
2018,08,08,00,09,19.60
2018,08,08,00,10,19.60
2018,08,08,00,11,19.60
2018,08,08,00,12,19.60
2018,08,08,00,13,19.50
2018,08,08,00,14,19.50
2018,08,08,00,15,19.50
2018,08,08,00,16,19.50
2018,08,08,00,17,19.40
2018,08,08,00,18,19.40
2018,08,08,00,19,19.40
2018,08,08,00,20,19.40
2018,08,08,00,21,19.40
2018,08,08,00,22,19.40
2018,08,08,00,23,19.40
2018,08,08,00,24,19.40
2018,08,08,00,25,19.40
2018,08,08,00,26,19.30
2018,08,08,00,27,19.30
2018,08,08,00,28,19.30
2018,08,08,00,29,19.30
2018,08,08,00,30,19.30
2018,08,08,00,31,19.20
2018,08,08,00,32,19.20
2018,08,08,00,33,19.20
2018,08,08,00,34,19.20
2018,08,08,00,35,19.10
2018,08,08,00,36,19.10
2018,08,08,00,37,19.10
2018,08,08,00,38,19.10
2018,08,08,00,39,19.10
2018,08,08,00,40,19.10
2018,08,08,00,41,19.00
2018,08,08,00,42,19.00
2018,08,08,00,43,19.00
2018,08,08,00,44,18.90
2018,08,08,00,45,18.90
2018,08,08,00,46,18.90
2018,08,08,00,47,18.90
2018,08,08,00,48,18.90
2018,08,08,00,49,18.80
2018,08,08,00,50,18.80
2018,08,08,00,51,18.80
2018,08,08,00,52,18.80
2018,08,08,00,53,18.80
2018,08,08,00,54,18.80
2018,08,08,00,55,18.70
2018,08,08,00,56,18.70
2018,08,08,00,57,18.70
2018,08,08,00,58,18.70
2018,08,08,00,59,18.70
2018,08,08,01,00,18.70
2018,08,08,01,01,18.70
2018,08,08,01,02,18.70
2018,08,08,01,03,18.70
2018,08,08,01,04,18.70
2018,08,08,01,05,18.70
2018,08,08,01,06,18.70
2018,08,08,01,07,18.70
2018,08,08,01,08,18.70
2018,08,08,01,09,18.70
2018,08,08,01,10,18.60
2018,08,08,01,11,18.60
2018,08,08,01,12,18.60
2018,08,08,01,13,18.60
2018,08,08,01,14,18.60
2018,08,08,01,15,18.60
2018,08,08,01,16,18.60
2018,08,08,01,17,18.50
2018,08,08,01,18,18.50
2018,08,08,01,19,18.50
2018,08,08,01,20,18.50
2018,08,08,01,21,18.50
2018,08,08,01,22,18.50
2018,08,08,01,23,18.40
2018,08,08,01,24,18.40
2018,08,08,01,25,18.40
2018,08,08,01,26,18.40
2018,08,08,01,27,18.40
2018,08,08,01,28,18.40
2018,08,08,01,29,18.40
2018,08,08,01,30,18.30
2018,08,08,01,31,18.30
2018,08,08,01,32,18.30
2018,08,08,01,33,18.30
2018,08,08,01,34,18.30
2018,08,08,01,35,18.30
2018,08,08,01,36,18.30
2018,08,08,01,37,18.30
2018,08,08,01,38,18.20
2018,08,08,01,39,18.20
2018,08,08,01,40,18.20
2018,08,08,01,41,18.20
2018,08,08,01,42,18.20
2018,08,08,01,43,18.20
2018,08,08,01,44,18.20
2018,08,08,01,45,18.10
2018,08,08,01,46,18.10
2018,08,08,01,47,18.10
2018,08,08,01,48,18.10
2018,08,08,01,49,18.10
2018,08,08,01,50,18.10
2018,08,08,01,51,18.10
2018,08,08,01,52,18.10
2018,08,08,01,53,18.10
2018,08,08,01,54,18.10
2018,08,08,01,55,18.10
2018,08,08,01,56,18.10
2018,08,08,01,57,18.10
2018,08,08,01,58,18.10
2018,08,08,01,59,18.10
2018,08,08,02,00,18.00
2018,08,08,02,01,18.00
2018,08,08,02,02,18.00
2018,08,08,02,03,18.00
2018,08,08,02,04,18.00
2018,08,08,02,05,17.90
2018,08,08,02,06,17.90
2018,08,08,02,07,17.90
2018,08,08,02,08,17.90
2018,08,08,02,09,17.80
2018,08,08,02,10,17.80
2018,08,08,02,11,17.80
2018,08,08,02,12,17.80
2018,08,08,02,13,17.80
2018,08,08,02,14,17.70
2018,08,08,02,15,17.70
2018,08,08,02,16,17.70
2018,08,08,02,17,17.60
2018,08,08,02,18,17.60
2018,08,08,02,19,17.50
2018,08,08,02,20,17.50
2018,08,08,02,21,17.40
2018,08,08,02,22,17.40
2018,08,08,02,23,17.40
2018,08,08,02,24,17.40
2018,08,08,02,25,17.30
2018,08,08,02,26,17.30
2018,08,08,02,27,17.30
2018,08,08,02,28,17.30
2018,08,08,02,29,17.20
2018,08,08,02,30,17.20
2018,08,08,02,31,17.20
2018,08,08,02,32,17.20
2018,08,08,02,33,17.10
2018,08,08,02,34,17.10
2018,08,08,02,35,17.10
2018,08,08,02,36,17.10
2018,08,08,02,37,17.00
2018,08,08,02,38,17.00
2018,08,08,02,39,17.00
2018,08,08,02,40,16.90
2018,08,08,02,41,16.90
2018,08,08,02,42,16.90
2018,08,08,02,43,16.90
2018,08,08,02,44,16.90
2018,08,08,02,45,16.90
2018,08,08,02,46,16.90
2018,08,08,02,47,16.90
2018,08,08,02,48,16.80
2018,08,08,02,49,16.80
2018,08,08,02,50,16.80
2018,08,08,02,51,16.80
2018,08,08,02,52,16.80
2018,08,08,02,53,16.70
2018,08,08,02,54,16.70
2018,08,08,02,55,16.70
2018,08,08,02,56,16.70
2018,08,08,02,57,16.70
2018,08,08,02,58,16.70
2018,08,08,02,59,16.70
2018,08,08,03,00,16.60
2018,08,08,03,01,16.60
2018,08,08,03,02,16.60
2018,08,08,03,03,16.60
2018,08,08,03,04,16.50
2018,08,08,03,05,16.50
2018,08,08,03,06,16.50
2018,08,08,03,07,16.40
2018,08,08,03,08,16.40
2018,08,08,03,09,16.40
2018,08,08,03,10,16.40
2018,08,08,03,11,16.40
2018,08,08,03,12,16.40
2018,08,08,03,13,16.30
2018,08,08,03,14,16.30
2018,08,08,03,15,16.30
2018,08,08,03,16,16.30
2018,08,08,03,17,16.30
2018,08,08,03,18,16.30
2018,08,08,03,19,16.30
2018,08,08,03,20,16.30
2018,08,08,03,21,16.30
2018,08,08,03,22,16.30
2018,08,08,03,23,16.30
2018,08,08,03,24,16.30
2018,08,08,03,25,16.30
2018,08,08,03,26,16.30
2018,08,08,03,27,16.20
2018,08,08,03,28,16.20
2018,08,08,03,29,16.20
2018,08,08,03,30,16.20
2018,08,08,03,31,16.20
2018,08,08,03,32,16.20
2018,08,08,03,33,16.20
2018,08,08,03,34,16.20
2018,08,08,03,35,16.10
2018,08,08,03,36,16.10
2018,08,08,03,37,16.10
2018,08,08,03,38,16.10
2018,08,08,03,39,16.10
2018,08,08,03,40,16.10
2018,08,08,03,41,16.10
2018,08,08,03,42,16.10
2018,08,08,03,43,16.00
2018,08,08,03,44,16.00
2018,08,08,03,45,16.00
2018,08,08,03,46,16.00
2018,08,08,03,47,15.90
2018,08,08,03,48,15.90
2018,08,08,03,49,15.90
2018,08,08,03,50,15.90
2018,08,08,03,51,15.90
2018,08,08,03,52,15.80
2018,08,08,03,53,15.80
2018,08,08,03,54,15.80
2018,08,08,03,55,15.80
2018,08,08,03,56,15.80
2018,08,08,03,57,15.80
2018,08,08,03,58,15.80
2018,08,08,03,59,15.80
2018,08,08,04,00,15.80
2018,08,08,04,01,15.80
2018,08,08,04,02,15.80
2018,08,08,04,03,15.80
2018,08,08,04,04,15.80
2018,08,08,04,05,15.80
2018,08,08,04,06,15.80
2018,08,08,04,07,15.80
2018,08,08,04,08,15.70
2018,08,08,04,09,15.70
2018,08,08,04,10,15.70
2018,08,08,04,11,15.70
2018,08,08,04,12,15.70
2018,08,08,04,13,15.60
2018,08,08,04,14,15.60
2018,08,08,04,15,15.60
2018,08,08,04,16,15.60
2018,08,08,04,17,15.60
2018,08,08,04,18,15.60
2018,08,08,04,19,15.60
2018,08,08,04,20,15.50
2018,08,08,04,21,15.50
2018,08,08,04,22,15.50
2018,08,08,04,23,15.50
2018,08,08,04,24,15.50
2018,08,08,04,25,15.40
2018,08,08,04,26,15.40
2018,08,08,04,27,15.40
2018,08,08,04,28,15.40
2018,08,08,04,29,15.40
2018,08,08,04,30,15.40
2018,08,08,04,31,15.40
2018,08,08,04,32,15.40
2018,08,08,04,33,15.40
2018,08,08,04,34,15.40
2018,08,08,04,35,15.40
2018,08,08,04,36,15.40
2018,08,08,04,37,15.40
2018,08,08,04,38,15.40
2018,08,08,04,39,15.30
2018,08,08,04,40,15.20
2018,08,08,04,41,15.20
2018,08,08,04,42,15.20
2018,08,08,04,43,15.10
2018,08,08,04,44,15.20
2018,08,08,04,45,15.20
2018,08,08,04,46,15.10
2018,08,08,04,47,15.10
2018,08,08,04,48,15.10
2018,08,08,04,49,15.10
2018,08,08,04,50,15.10
2018,08,08,04,51,15.10
2018,08,08,04,52,15.00
2018,08,08,04,53,15.00
2018,08,08,04,54,15.00
2018,08,08,04,55,15.00
2018,08,08,04,56,15.00
2018,08,08,04,57,15.00
2018,08,08,04,58,15.00
2018,08,08,04,59,15.00
2018,08,08,05,00,15.00
2018,08,08,05,01,15.00
2018,08,08,05,02,15.00
2018,08,08,05,03,15.00
2018,08,08,05,04,15.00
2018,08,08,05,05,15.00
2018,08,08,05,06,15.00
2018,08,08,05,07,15.00
2018,08,08,05,08,15.00
2018,08,08,05,09,15.00
2018,08,08,05,10,15.00
2018,08,08,05,11,15.00
2018,08,08,05,12,15.00
2018,08,08,05,13,15.00
2018,08,08,05,14,15.00
2018,08,08,05,15,15.00
2018,08,08,05,16,15.00
2018,08,08,05,17,15.00
2018,08,08,05,18,15.00
2018,08,08,05,19,15.00
2018,08,08,05,20,14.90
2018,08,08,05,21,14.90
2018,08,08,05,22,14.80
2018,08,08,05,23,14.80
2018,08,08,05,24,14.80
2018,08,08,05,25,14.80
2018,08,08,05,26,14.80
2018,08,08,05,27,14.80
2018,08,08,05,28,14.70
2018,08,08,05,29,14.70
2018,08,08,05,30,14.70
2018,08,08,05,31,14.70
2018,08,08,05,32,14.70
2018,08,08,05,33,14.70
2018,08,08,05,34,14.70
2018,08,08,05,35,14.70
2018,08,08,05,36,14.70
2018,08,08,05,37,14.70
2018,08,08,05,38,14.70
2018,08,08,05,39,14.70
2018,08,08,05,40,14.70
2018,08,08,05,41,14.70
2018,08,08,05,42,14.70
2018,08,08,05,43,14.70
2018,08,08,05,44,14.70
2018,08,08,05,45,14.70
2018,08,08,05,46,14.70
2018,08,08,05,47,14.70
2018,08,08,05,48,14.70
2018,08,08,05,49,14.70
2018,08,08,05,50,14.70
2018,08,08,05,51,14.70
2018,08,08,05,52,14.70
2018,08,08,05,53,14.70
2018,08,08,05,54,14.70
2018,08,08,05,55,14.70
2018,08,08,05,56,14.70
2018,08,08,06,13,14.30
2018,08,08,06,14,14.30
2018,08,08,06,15,14.30
2018,08,08,06,16,14.30
2018,08,08,06,17,14.30
2018,08,08,06,18,14.30
2018,08,08,06,19,14.30
2018,08,08,06,20,14.30
2018,08,08,06,21,14.30
2018,08,08,06,22,14.30
2018,08,08,06,23,14.30
2018,08,08,06,24,14.30
2018,08,08,06,25,14.30
2018,08,08,06,26,14.30
2018,08,08,06,27,14.20
2018,08,08,06,28,14.20
2018,08,08,06,29,14.20
2018,08,08,06,30,14.20
2018,08,08,06,31,14.20
2018,08,08,06,32,14.20
2018,08,08,06,33,14.20
2018,08,08,06,34,14.20
2018,08,08,06,35,14.20
2018,08,08,06,36,14.20
2018,08,08,06,37,14.20
2018,08,08,06,38,14.20
2018,08,08,06,39,14.20
2018,08,08,06,40,14.20
2018,08,08,06,41,14.20
2018,08,08,06,42,14.20
2018,08,08,06,43,14.20
2018,08,08,06,44,14.20
2018,08,08,06,45,14.20
2018,08,08,06,46,14.20
2018,08,08,06,47,14.20
2018,08,08,06,48,14.20
2018,08,08,06,49,14.20
2018,08,08,06,50,14.20
2018,08,08,06,51,14.20
2018,08,08,06,52,14.10
2018,08,08,06,53,14.10
2018,08,08,06,54,14.10
2018,08,08,06,55,14.10
2018,08,08,06,56,14.10
2018,08,08,06,57,14.10
2018,08,08,06,58,14.10
2018,08,08,06,59,14.20
2018,08,08,07,00,14.20
2018,08,08,07,01,14.20
2018,08,08,07,02,14.20
2018,08,08,07,03,14.20
2018,08,08,07,04,14.20
2018,08,08,07,05,14.20
2018,08,08,07,06,14.30
2018,08,08,07,07,14.30
2018,08,08,07,08,14.30
2018,08,08,07,09,14.40
2018,08,08,07,10,14.40
2018,08,08,07,11,14.40
2018,08,08,07,12,14.40
2018,08,08,07,13,14.50
2018,08,08,07,14,14.50
2018,08,08,07,15,14.60
2018,08,08,07,16,14.60
2018,08,08,07,17,14.60
2018,08,08,07,18,14.70
2018,08,08,07,19,14.70
2018,08,08,07,20,14.70
2018,08,08,07,21,14.70
2018,08,08,07,22,14.80
2018,08,08,07,23,14.80
2018,08,08,07,24,14.90
2018,08,08,07,25,15.00
2018,08,08,07,26,15.00
2018,08,08,07,27,15.00
2018,08,08,07,28,15.00
2018,08,08,07,29,15.00
2018,08,08,07,30,15.00
2018,08,08,07,31,15.10
2018,08,08,07,32,15.10
2018,08,08,07,33,15.10
2018,08,08,07,34,15.10
2018,08,08,07,35,15.10
2018,08,08,07,36,15.10
2018,08,08,07,37,15.10
2018,08,08,07,38,15.10
2018,08,08,07,39,15.10
2018,08,08,07,40,15.20
2018,08,08,07,41,15.70
2018,08,08,07,42,15.70
2018,08,08,07,43,15.70
2018,08,08,07,44,15.70
2018,08,08,07,45,15.80
2018,08,08,07,46,15.90
2018,08,08,07,47,15.90
2018,08,08,07,48,15.90
2018,08,08,07,49,15.90
2018,08,08,07,50,16.00
2018,08,08,07,51,16.10
2018,08,08,07,52,16.10
2018,08,08,07,53,16.10
2018,08,08,07,54,16.10
2018,08,08,07,55,16.20
2018,08,08,07,56,16.20
2018,08,08,07,57,16.20
2018,08,08,07,58,16.30
2018,08,08,07,59,16.40
2018,08,08,08,00,16.40
2018,08,08,08,01,16.40
2018,08,08,08,02,16.50
2018,08,08,08,03,16.60
2018,08,08,08,04,16.60
2018,08,08,08,05,16.70
2018,08,08,08,06,16.80
2018,08,08,08,07,16.80
2018,08,08,08,08,16.90
2018,08,08,08,09,16.90
2018,08,08,08,10,17.00
2018,08,08,08,11,17.20
2018,08,08,08,12,17.30
2018,08,08,08,13,17.40
2018,08,08,08,14,17.50
2018,08,08,08,15,17.60
2018,08,08,08,16,17.60
2018,08,08,08,17,17.80
2018,08,08,08,18,17.80
2018,08,08,08,19,17.90
2018,08,08,08,20,18.00
2018,08,08,08,21,18.10
2018,08,08,08,22,18.10
2018,08,08,08,23,18.20
2018,08,08,08,24,18.30
2018,08,08,08,25,18.30
2018,08,08,08,26,18.40
2018,08,08,08,27,18.40
2018,08,08,08,28,18.60
2018,08,08,08,29,18.60
2018,08,08,08,30,18.70
2018,08,08,08,31,18.80
2018,08,08,08,32,18.90
2018,08,08,08,33,19.00
2018,08,08,08,34,19.10
2018,08,08,08,35,19.20
2018,08,08,08,36,19.20
2018,08,08,08,37,19.30
2018,08,08,08,38,19.40
2018,08,08,08,39,19.40
2018,08,08,08,40,19.50
2018,08,08,08,41,19.50
2018,08,08,08,42,19.60
2018,08,08,08,43,19.70
2018,08,08,08,44,19.70
2018,08,08,08,45,19.70
2018,08,08,08,46,19.80
2018,08,08,08,47,19.80
2018,08,08,08,48,19.90
2018,08,08,08,49,19.90
2018,08,08,08,50,20.00
2018,08,08,08,51,20.00
2018,08,08,08,52,20.10
2018,08,08,08,53,20.10
2018,08,08,08,54,20.20
2018,08,08,08,55,20.20
2018,08,08,08,56,20.30
2018,08,08,08,57,20.40
2018,08,08,08,58,20.50
2018,08,08,08,59,20.50
2018,08,08,09,00,20.60
2018,08,08,09,01,20.70
2018,08,08,09,02,20.70
2018,08,08,09,03,20.80
2018,08,08,09,04,20.90
2018,08,08,09,05,20.90
2018,08,08,09,06,21.00
2018,08,08,09,07,21.00
2018,08,08,09,08,21.10
2018,08,08,09,09,21.10
2018,08,08,09,10,21.10
2018,08,08,09,11,21.10
2018,08,08,09,12,21.10
2018,08,08,09,13,21.30
2018,08,08,09,14,21.30
2018,08,08,09,15,21.40
2018,08,08,09,16,21.40
2018,08,08,09,17,21.50
2018,08,08,09,18,21.60
2018,08,08,09,19,21.60
2018,08,08,09,20,21.70
2018,08,08,09,21,21.80
2018,08,08,09,22,21.90
2018,08,08,09,23,22.00
2018,08,08,09,24,22.10
2018,08,08,09,25,22.20
2018,08,08,09,26,22.30
2018,08,08,09,27,22.40
2018,08,08,09,28,22.50
2018,08,08,09,29,22.60
2018,08,08,09,30,22.70
2018,08,08,09,31,22.90
2018,08,08,09,32,23.00
2018,08,08,09,33,23.10
2018,08,08,09,34,23.20
2018,08,08,09,35,23.30
2018,08,08,09,36,23.40
2018,08,08,09,37,23.40
2018,08,08,09,38,23.60
2018,08,08,09,39,23.70
2018,08,08,09,40,23.80
2018,08,08,09,41,23.90
2018,08,08,09,42,24.00
2018,08,08,09,43,24.10
2018,08,08,09,44,24.20
2018,08,08,09,45,24.30
2018,08,08,09,46,24.40
2018,08,08,09,47,24.50
2018,08,08,09,48,24.60
2018,08,08,09,49,24.70
2018,08,08,09,50,24.80
2018,08,08,09,51,24.90
2018,08,08,09,52,24.90
2018,08,08,09,53,25.00
2018,08,08,09,54,25.10
2018,08,08,09,55,25.10
2018,08,08,09,56,25.20
2018,08,08,09,57,25.30
2018,08,08,09,58,25.30
2018,08,08,09,59,25.40
2018,08,08,10,00,25.60
2018,08,08,10,01,25.70
2018,08,08,10,02,25.80
2018,08,08,10,03,25.90
2018,08,08,10,04,26.00
2018,08,08,10,05,26.20
2018,08,08,10,06,26.30
2018,08,08,10,07,26.40
2018,08,08,10,08,26.40
2018,08,08,10,09,26.60
2018,08,08,10,10,26.70
2018,08,08,10,11,26.80
2018,08,08,10,12,26.80
2018,08,08,10,13,26.90
2018,08,08,10,14,27.00
2018,08,08,10,15,27.10
2018,08,08,10,16,27.20
2018,08,08,10,17,27.30
2018,08,08,10,18,27.40
2018,08,08,10,19,27.40
2018,08,08,10,20,27.50
2018,08,08,10,21,27.50
2018,08,08,10,22,27.50
2018,08,08,10,23,27.50
2018,08,08,10,24,27.50
2018,08,08,10,25,27.60
2018,08,08,10,26,27.60
2018,08,08,10,27,27.60
2018,08,08,10,28,27.60
2018,08,08,10,29,27.50
2018,08,08,10,30,27.40
2018,08,08,10,31,27.40
2018,08,08,10,32,27.40
2018,08,08,10,33,27.30
2018,08,08,10,34,27.30
2018,08,08,10,35,27.30
2018,08,08,10,36,27.30
2018,08,08,10,37,27.40
2018,08,08,10,38,27.40
2018,08,08,10,39,27.40
2018,08,08,10,40,27.50
2018,08,08,10,41,27.50
2018,08,08,10,42,27.60
2018,08,08,10,43,27.60
2018,08,08,10,44,27.70
2018,08,08,10,45,27.80
2018,08,08,10,46,27.80
2018,08,08,10,47,27.80
2018,08,08,10,48,27.80
2018,08,08,10,49,27.80
2018,08,08,10,50,27.80
2018,08,08,10,51,27.90
2018,08,08,10,52,27.90
2018,08,08,10,53,28.00
2018,08,08,10,54,28.10
2018,08,08,10,55,28.10
2018,08,08,10,56,28.20
2018,08,08,10,57,28.40
2018,08,08,10,58,28.50
2018,08,08,10,59,28.70
2018,08,08,11,00,28.80
2018,08,08,11,01,28.90
2018,08,08,11,02,29.00
2018,08,08,11,03,29.00
2018,08,08,11,04,29.00
2018,08,08,11,05,29.10
2018,08,08,11,06,29.20
2018,08,08,11,07,29.30
2018,08,08,11,08,29.30
2018,08,08,11,09,29.30
2018,08,08,11,10,29.40
2018,08,08,11,11,29.40
2018,08,08,11,12,29.30
2018,08,08,11,13,29.30
2018,08,08,11,14,29.30
2018,08,08,11,15,29.30
2018,08,08,11,16,29.20
2018,08,08,11,17,29.20
2018,08,08,11,18,29.20
2018,08,08,11,19,29.20
2018,08,08,11,20,29.20
2018,08,08,11,21,29.20
2018,08,08,11,22,29.30
2018,08,08,11,23,29.30
2018,08,08,11,24,29.30
2018,08,08,11,25,29.40
2018,08,08,11,26,29.40
2018,08,08,11,27,29.40
2018,08,08,11,28,29.50
2018,08,08,11,29,29.50
2018,08,08,11,30,29.60
2018,08,08,11,31,29.70
2018,08,08,11,32,29.80
2018,08,08,11,33,29.80
2018,08,08,11,34,29.80
2018,08,08,11,35,29.90
2018,08,08,11,36,29.90
2018,08,08,11,37,29.90
2018,08,08,11,38,29.90
2018,08,08,11,39,29.90
2018,08,08,11,40,29.90
2018,08,08,11,41,30.00
2018,08,08,11,42,30.00
2018,08,08,11,43,30.10
2018,08,08,11,44,30.20
2018,08,08,11,45,30.30
2018,08,08,11,46,30.40
2018,08,08,11,47,30.50
2018,08,08,11,48,30.60
2018,08,08,11,49,30.60
2018,08,08,11,50,30.60
2018,08,08,11,51,30.60
2018,08,08,11,52,30.60
2018,08,08,11,53,30.60
2018,08,08,11,54,30.60
2018,08,08,11,55,30.60
2018,08,08,11,56,30.60
2018,08,08,11,57,30.60
2018,08,08,11,58,30.60
2018,08,08,11,59,30.70
2018,08,08,12,00,30.70
2018,08,08,12,01,30.80
2018,08,08,12,02,30.80
2018,08,08,12,03,30.90
2018,08,08,12,04,30.80
2018,08,08,12,05,30.80
2018,08,08,12,06,30.80
2018,08,08,12,07,30.80
2018,08,08,12,08,30.90
2018,08,08,12,09,30.90
2018,08,08,12,10,30.90
2018,08,08,12,11,30.90
2018,08,08,12,12,31.00
2018,08,08,12,13,31.00
2018,08,08,12,14,31.00
2018,08,08,12,15,31.10
2018,08,08,12,16,31.20
2018,08,08,12,17,31.30
2018,08,08,12,18,31.30
2018,08,08,12,19,31.40
2018,08,08,12,20,31.60
2018,08,08,12,21,31.60
2018,08,08,12,22,31.60
2018,08,08,12,23,31.60
2018,08,08,12,24,31.50
2018,08,08,12,25,31.50
2018,08,08,12,26,31.40
2018,08,08,12,27,31.40
2018,08,08,12,28,31.40
2018,08,08,12,29,31.40
2018,08,08,12,30,31.50
2018,08,08,12,31,31.50
2018,08,08,12,32,31.60
2018,08,08,12,33,31.60
2018,08,08,12,34,31.70
2018,08,08,12,35,31.70
2018,08,08,12,36,31.80
2018,08,08,12,37,31.80
2018,08,08,12,38,31.80
2018,08,08,12,39,31.80
2018,08,08,12,40,31.70
2018,08,08,12,41,31.70
2018,08,08,12,42,31.60
2018,08,08,12,43,31.60
2018,08,08,12,44,31.60
2018,08,08,12,45,31.70
2018,08,08,12,46,31.80
2018,08,08,12,47,31.90
2018,08,08,12,48,32.00
2018,08,08,12,49,32.10
2018,08,08,12,50,32.10
2018,08,08,12,51,32.00
2018,08,08,12,52,32.00
2018,08,08,12,53,32.00
2018,08,08,12,54,32.00
2018,08,08,12,55,32.10
2018,08,08,12,56,32.10
2018,08,08,12,57,32.10
2018,08,08,12,58,32.20
2018,08,08,12,59,32.20
2018,08,08,13,00,32.20
2018,08,08,13,01,32.10
2018,08,08,13,02,32.10
2018,08,08,13,03,32.10
2018,08,08,13,04,32.10
2018,08,08,13,05,32.10
2018,08,08,13,06,32.00
2018,08,08,13,07,32.00
2018,08,08,13,08,32.10
2018,08,08,13,09,32.10
2018,08,08,13,10,32.20
2018,08,08,13,11,32.20
2018,08,08,13,12,32.30
2018,08,08,13,13,32.40
2018,08,08,13,14,32.40
2018,08,08,13,15,32.40
2018,08,08,13,16,32.50
2018,08,08,13,17,32.50
2018,08,08,13,18,32.60
2018,08,08,13,19,32.70
2018,08,08,13,20,32.70
2018,08,08,13,21,32.60
2018,08,08,13,22,32.60
2018,08,08,13,23,32.60
2018,08,08,13,24,32.60
2018,08,08,13,25,32.60
2018,08,08,13,26,32.60
2018,08,08,13,27,32.70
2018,08,08,13,28,32.70
2018,08,08,13,29,32.70
2018,08,08,13,30,32.70
2018,08,08,13,31,32.60
2018,08,08,13,32,32.60
2018,08,08,13,33,32.60
2018,08,08,13,34,32.70
2018,08,08,13,35,32.70
2018,08,08,13,36,32.70
2018,08,08,13,37,32.70
2018,08,08,13,38,32.70
2018,08,08,13,39,32.80
2018,08,08,13,40,32.80
2018,08,08,13,41,32.90
2018,08,08,13,42,32.90
2018,08,08,13,43,32.90
2018,08,08,13,44,33.00
2018,08,08,13,45,33.10
2018,08,08,13,46,33.00
2018,08,08,13,47,32.90
2018,08,08,13,48,32.80
2018,08,08,13,49,32.80
2018,08,08,13,50,32.70
2018,08,08,13,51,32.70
2018,08,08,13,52,32.70
2018,08,08,13,53,32.70
2018,08,08,13,54,32.80
2018,08,08,13,55,32.90
2018,08,08,13,56,32.90
2018,08,08,13,57,33.00
2018,08,08,13,58,33.10
2018,08,08,13,59,33.20
2018,08,08,14,00,33.20
2018,08,08,14,01,33.10
2018,08,08,14,02,33.00
2018,08,08,14,03,33.00
2018,08,08,14,04,33.00
2018,08,08,14,05,33.10
2018,08,08,14,06,33.10
2018,08,08,14,07,33.20
2018,08,08,14,08,33.10
2018,08,08,14,09,33.10
2018,08,08,14,10,33.10
2018,08,08,14,11,33.10
2018,08,08,14,12,33.10
2018,08,08,14,13,33.10
2018,08,08,14,14,33.00
2018,08,08,14,15,33.00
2018,08,08,14,16,32.90
2018,08,08,14,17,33.00
2018,08,08,14,18,33.00
2018,08,08,14,19,33.10
2018,08,08,14,20,33.10
2018,08,08,14,21,33.10
2018,08,08,14,22,33.20
2018,08,08,14,23,33.30
2018,08,08,14,24,33.30
2018,08,08,14,25,33.40
2018,08,08,14,26,33.50
2018,08,08,14,27,33.50
2018,08,08,14,28,33.60
2018,08,08,14,29,33.60
2018,08,08,14,30,33.60
2018,08,08,14,31,33.60
2018,08,08,14,32,33.60
2018,08,08,14,33,33.60
2018,08,08,14,34,33.50
2018,08,08,14,35,33.40
2018,08,08,14,36,33.50
2018,08,08,14,37,33.60
2018,08,08,14,38,33.60
2018,08,08,14,39,33.60
2018,08,08,14,40,33.70
2018,08,08,14,41,33.70
2018,08,08,14,42,33.80
2018,08,08,14,43,33.80
2018,08,08,14,44,33.80
2018,08,08,14,45,33.80
2018,08,08,14,46,33.80
2018,08,08,14,47,33.80
2018,08,08,14,48,33.70
2018,08,08,14,49,33.70
2018,08,08,14,50,33.70
2018,08,08,14,51,33.60
2018,08,08,14,52,33.60
2018,08,08,14,53,33.60
2018,08,08,14,54,33.70
2018,08,08,14,55,33.70
2018,08,08,14,56,33.70
2018,08,08,14,57,33.80
2018,08,08,14,58,33.80
2018,08,08,14,59,33.90
2018,08,08,15,00,33.90
2018,08,08,15,01,33.90
2018,08,08,15,02,33.90
2018,08,08,15,03,33.90
2018,08,08,15,04,34.00
2018,08,08,15,05,34.00
2018,08,08,15,06,34.00
2018,08,08,15,07,33.90
2018,08,08,15,08,33.90
2018,08,08,15,09,33.80
2018,08,08,15,10,33.90
2018,08,08,15,11,33.90
2018,08,08,15,12,33.90
2018,08,08,15,13,33.90
2018,08,08,15,14,33.90
2018,08,08,15,15,34.00
2018,08,08,15,16,33.90
2018,08,08,15,17,33.90
2018,08,08,15,18,33.90
2018,08,08,15,19,33.90
2018,08,08,15,20,33.90
2018,08,08,15,21,34.00
2018,08,08,15,22,34.10
2018,08,08,15,23,34.20
2018,08,08,15,24,34.30
2018,08,08,15,25,34.30
2018,08,08,15,26,34.30
2018,08,08,15,27,34.30
2018,08,08,15,28,34.30
2018,08,08,15,29,34.30
2018,08,08,15,30,34.30
2018,08,08,15,31,34.30
2018,08,08,15,32,34.20
2018,08,08,15,33,34.10
2018,08,08,15,34,34.10
2018,08,08,15,35,34.00
2018,08,08,15,36,34.00
2018,08,08,15,37,33.90
2018,08,08,15,38,33.90
2018,08,08,15,39,34.00
2018,08,08,15,40,34.00
2018,08,08,15,41,34.10
2018,08,08,15,42,34.10
2018,08,08,15,43,34.10
2018,08,08,15,44,34.10
2018,08,08,15,45,34.10
2018,08,08,15,46,34.10
2018,08,08,15,47,34.10
2018,08,08,15,48,34.10
2018,08,08,15,49,34.10
2018,08,08,15,50,34.10
2018,08,08,15,51,34.20
2018,08,08,15,52,34.20
2018,08,08,15,53,34.20
2018,08,08,15,54,34.20
2018,08,08,15,55,34.20
2018,08,08,15,56,34.20
2018,08,08,15,57,34.20
2018,08,08,15,58,34.30
2018,08,08,15,59,34.30
2018,08,08,16,00,34.30
2018,08,08,16,01,34.30
2018,08,08,16,02,34.30
2018,08,08,16,03,34.30
2018,08,08,16,04,34.20
2018,08,08,16,05,34.20
2018,08,08,16,06,34.20
2018,08,08,16,07,34.20
2018,08,08,16,08,34.20
2018,08,08,16,09,34.20
2018,08,08,16,10,34.30
2018,08,08,16,11,34.30
2018,08,08,16,12,34.30
2018,08,08,16,13,34.30
2018,08,08,16,14,34.30
2018,08,08,16,15,34.30
2018,08,08,16,16,34.30
2018,08,08,16,17,34.20
2018,08,08,16,18,34.20
2018,08,08,16,19,34.20
2018,08,08,16,20,34.20
2018,08,08,16,21,34.20
2018,08,08,16,22,34.20
2018,08,08,16,23,34.10
2018,08,08,16,24,34.10
2018,08,08,16,25,34.10
2018,08,08,16,26,34.10
2018,08,08,16,27,34.10
2018,08,08,16,28,34.10
2018,08,08,16,29,34.10
2018,08,08,16,30,34.10
2018,08,08,16,31,34.10
2018,08,08,16,32,34.10
2018,08,08,16,33,34.10
2018,08,08,16,34,34.20
2018,08,08,16,35,34.20
2018,08,08,16,36,34.20
2018,08,08,16,37,34.20
2018,08,08,16,38,34.20
2018,08,08,16,39,34.20
2018,08,08,16,40,34.20
2018,08,08,16,41,34.20
2018,08,08,16,42,34.10
2018,08,08,16,43,34.10
2018,08,08,16,44,34.10
2018,08,08,16,45,34.00
2018,08,08,16,46,34.00
2018,08,08,16,47,33.90
2018,08,08,16,48,33.90
2018,08,08,16,49,33.80
2018,08,08,16,50,33.80
2018,08,08,16,51,33.80
2018,08,08,16,52,33.80
2018,08,08,16,53,33.80
2018,08,08,16,54,33.80
2018,08,08,16,55,33.80
2018,08,08,16,56,33.80
2018,08,08,16,57,33.90
2018,08,08,16,58,33.90
2018,08,08,16,59,34.00
2018,08,08,17,00,34.10
2018,08,08,17,01,34.10
2018,08,08,17,02,34.20
2018,08,08,17,03,34.20
2018,08,08,17,04,34.20
2018,08,08,17,05,34.20
2018,08,08,17,06,34.10
2018,08,08,17,07,34.10
2018,08,08,17,08,34.10
2018,08,08,17,09,34.10
2018,08,08,17,10,34.10
2018,08,08,17,11,34.10
2018,08,08,17,12,34.10
2018,08,08,17,13,34.10
2018,08,08,17,14,34.10
2018,08,08,17,15,34.10
2018,08,08,17,16,34.10
2018,08,08,17,17,34.10
2018,08,08,17,18,34.10
2018,08,08,17,19,34.00
2018,08,08,17,20,34.00
2018,08,08,17,21,33.90
2018,08,08,17,22,33.90
2018,08,08,17,23,33.90
2018,08,08,17,24,33.90
2018,08,08,17,25,33.90
2018,08,08,17,26,33.90
2018,08,08,17,27,33.90
2018,08,08,17,28,33.90
2018,08,08,17,29,33.90
2018,08,08,17,30,33.90
2018,08,08,17,31,33.90
2018,08,08,17,32,33.90
2018,08,08,17,33,33.90
2018,08,08,17,34,33.90
2018,08,08,17,35,33.90